ANIK F3 (31102 NORAD) Tracking and Keplerian Element Data

This shows tracking and keplerian element data for the satellite.

Feedback or suggestion? Click here.




ElementValue
Catalog31102
NameANIK F3
Epoch Orbit4156
Epoch Day34.73144502
Epoch Year2025
RAAN94.8381
Inclination0.0147
Eccentricity0.0002197
Argument of Perigee227.4162
Mean Anonmoly316.4701
Mean Motion1.00270844
Decay Rate4E-08
L11 31102U 07009A 25034.73144502 .00000004 00000+0 00000+0 0 9995
L22 31102 0.0147 94.8381 0002197 227.4162 316.4701 1.00270844 41561



Live tracking and technical data element details for ANIK F3 (NORAD 31102). ANIK F3 can be tracked NOW for your location showing map with azimuth and elevation plus other details from your city location.







IsCatalogInMostPopularTable: catalog: 31102, numindb: 351
Update: records affected: 1



GetName: 31102 ANIK F3

Hit Count: updated at: Thu, 15 May 2025 09:53:11 GMT